| time (UTC) | temp F | wind direction | speed MPH | gust MPH | rain 1hr in | rain 24hr in | rain mn in | humidity % | barometer mb |
| 20260502170429 | 74 | 74 | 0.0 | 1.0 | 0.00 | 0.00 | 0.00 | 34 | 1015.1 |
| 20260502170425 | 38 | 136 | 1.0 | 3.0 | 0.00 | 0.00 | 0.00 | 80 | 1020.9 |
| 20260502170421 | 38 | 136 | 1.0 | 3.0 | 0.00 | 0.00 | 0.00 | 79 | 1020.9 |
| 20260502170417 | 38 | 136 | 1.0 | 3.0 | 0.00 | 0.00 | 0.00 | 79 | 1020.9 |
| 20260502170408 | 38 | 136 | 1.0 | 4.0 | 0.00 | 0.00 | 0.00 | 79 | 1020.9 |
| 20260502170404 | 38 | 136 | 2.0 | 5.0 | 0.00 | 0.00 | 0.00 | 79 | 1021.0 |
| 20260502170356 | 38 | 136 | 2.0 | 5.0 | 0.00 | 0.00 | 0.00 | 79 | 1020.9 |
| 20260502170352 | 38 | 136 | 2.0 | 5.0 | 0.00 | 0.00 | 0.00 | 79 | 1020.9 |
| 20260502170348 | 38 | 136 | 2.0 | 5.0 | 0.00 | 0.00 | 0.00 | 79 | 1020.9 |
| 20260502170344 | 38 | 136 | 2.0 | 5.0 | 0.00 | 0.00 | 0.00 | 79 | 1020.9 |
| 20260502170340 | 38 | 136 | 2.0 | 5.0 | 0.00 | 0.00 | 0.00 | 78 | 1020.9 |
| 20260502170335 | 38 | 136 | 2.0 | 5.0 | 0.00 | 0.00 | 0.00 | 78 | 1020.9 |
| 20260502170331 | 74 | 74 | 0.0 | 1.0 | 0.00 | 0.00 | 0.00 | 33 | 1015.0 |
| 20260502170327 | 38 | 136 | 2.0 | 5.0 | 0.00 | 0.00 | 0.00 | 79 | 1020.9 |
| 20260502170323 | 39 | 137 | 2.0 | 5.0 | 0.00 | 0.00 | 0.00 | 79 | 1020.9 |
| 20260502170319 | 39 | 136 | 2.0 | 5.0 | 0.00 | 0.00 | 0.00 | 79 | 1020.9 |
| 20260502170315 | 39 | 136 | 2.0 | 5.0 | 0.00 | 0.00 | 0.00 | 78 | 1021.0 |
| 20260502170311 | 39 | 139 | 2.0 | 5.0 | 0.00 | 0.00 | 0.00 | 78 | 1020.9 |
| 20260502170307 | 39 | 136 | 2.0 | 5.0 | 0.00 | 0.00 | 0.00 | 78 | 1020.9 |
| 20260502170303 | 39 | 134 | 2.0 | 4.0 | 0.00 | 0.00 | 0.00 | 78 | 1020.9 |
| 20260502170259 | 39 | 146 | 2.0 | 3.0 | 0.00 | 0.00 | 0.00 | 78 | 1021.0 |
| 20260502170255 | 39 | 146 | 2.0 | 3.0 | 0.00 | 0.00 | 0.00 | 77 | 1020.9 |
| 20260502170251 | 39 | 146 | 2.0 | 3.0 | 0.00 | 0.00 | 0.00 | 77 | 1020.9 |
| 20260502170247 | 39 | 146 | 1.0 | 3.0 | 0.00 | 0.00 | 0.00 | 77 | 1020.9 |
| 20260502170243 | 39 | 144 | 1.0 | 3.0 | 0.00 | 0.00 | 0.00 | 77 | 1020.9 |
| 20260502170238 | 39 | 143 | 1.0 | 3.0 | 0.00 | 0.00 | 0.00 | 76 | 1020.9 |
| 20260502170234 | 39 | 142 | 1.0 | 3.0 | 0.00 | 0.00 | 0.00 | 76 | 1020.9 |
| 20260502170230 | 75 | 73 | 0.0 | 1.0 | 0.00 | 0.00 | 0.00 | 33 | 1015.0 |
| 20260502170226 | 39 | 139 | 1.0 | 3.0 | 0.00 | 0.00 | 0.00 | 76 | 1020.8 |
| 20260502170222 | 39 | 117 | 1.0 | 3.0 | 0.00 | 0.00 | 0.00 | 77 | 1020.8 |
| 20260502170214 | 40 | 117 | 1.0 | 3.0 | 0.00 | 0.00 | 0.00 | 78 | 1020.8 |
| 20260502170210 | 40 | 117 | 1.0 | 3.0 | 0.00 | 0.00 | 0.00 | 79 | 1020.8 |
| 20260502170206 | 40 | 116 | 1.0 | 3.0 | 0.00 | 0.00 | 0.00 | 80 | 1020.8 |
| 20260502170202 | 40 | 116 | 1.0 | 3.0 | 0.00 | 0.00 | 0.00 | 80 | 1020.8 |
| 20260502170158 | 39 | 116 | 1.0 | 3.0 | 0.00 | 0.00 | 0.00 | 80 | 1020.8 |
| 20260502170149 | 39 | 117 | 1.0 | 3.0 | 0.00 | 0.00 | 0.00 | 80 | 1020.8 |
| 20260502170145 | 39 | 117 | 1.0 | 3.0 | 0.00 | 0.00 | 0.00 | 80 | 1020.8 |
| 20260502170141 | 39 | 116 | 1.0 | 2.0 | 0.00 | 0.00 | 0.00 | 80 | 1020.8 |
| 20260502170137 | 39 | 116 | 1.0 | 2.0 | 0.00 | 0.00 | 0.00 | 80 | 1020.8 |
| 20260502170133 | 39 | 116 | 1.0 | 2.0 | 0.00 | 0.00 | 0.00 | 81 | 1020.9 |
| 20260502170129 | 75 | 74 | 0.0 | 1.0 | 0.00 | 0.00 | 0.00 | 34 | 1015.0 |
| 20260502170121 | 39 | 116 | 1.0 | 2.0 | 0.00 | 0.00 | 0.00 | 80 | 1020.8 |
| 20260502170117 | 39 | 116 | 1.0 | 2.0 | 0.00 | 0.00 | 0.00 | 80 | 1020.8 |
| 20260502170113 | 39 | 116 | 1.0 | 2.0 | 0.00 | 0.00 | 0.00 | 80 | 1020.8 |
| 20260502170109 | 39 | 116 | 1.0 | 3.0 | 0.00 | 0.00 | 0.00 | 80 | 1020.8 |
| 20260502170105 | 39 | 117 | 1.0 | 3.0 | 0.00 | 0.00 | 0.00 | 80 | 1020.8 |
| 20260502164345 | 80 | 286 | 2.0 | 6.0 | 0.00 | 0.00 | 0.00 | 31 | 1016.6 |
| 20260502164341 | 76 | 292 | 1.0 | 3.0 | 0.00 | 0.00 | 0.00 | 34 | 1015.2 |
| 20260502164337 | 76 | 291 | 1.0 | 3.0 | 0.00 | 0.00 | 0.00 | 32 | 1015.2 |
| 20260502164122 | 80 | 333 | 2.0 | 5.0 | 0.00 | 0.00 | 0.00 | 31 | 1016.5 |
| 20260502164118 | 79 | 321 | 2.0 | 5.0 | 0.00 | 0.00 | 0.00 | 30 | 1016.6 |
| 20260502164114 | 79 | 333 | 2.0 | 6.0 | 0.00 | 0.00 | 0.00 | 30 | 1016.6 |
| 20260502164109 | 76 | 292 | 1.0 | 3.0 | 0.00 | 0.00 | 0.00 | 31 | 1015.2 |
| 20260502164105 | 79 | 333 | 2.0 | 6.0 | 0.00 | 0.00 | 0.00 | 33 | 1016.6 |
| 20260502164101 | 79 | 333 | 2.0 | 6.0 | 0.00 | 0.00 | 0.00 | 29 | 1016.7 |
| 20260502164057 | 79 | 298 | 2.0 | 6.0 | 0.00 | 0.00 | 0.00 | 29 | 1016.7 |
| 20260502164053 | 79 | 298 | 3.0 | 6.0 | 0.00 | 0.00 | 0.00 | 29 | 1016.7 |
| 20260502164049 | 79 | 298 | 3.0 | 6.0 | 0.00 | 0.00 | 0.00 | 29 | 1016.7 |
| 20260502164045 | 79 | 292 | 3.0 | 6.0 | 0.00 | 0.00 | 0.00 | 31 | 1016.7 |
| 20260502164041 | 79 | 292 | 3.0 | 6.0 | 0.00 | 0.00 | 0.00 | 31 | 1016.7 |
| 20260502164037 | 79 | 293 | 3.0 | 6.0 | 0.00 | 0.00 | 0.00 | 31 | 1016.7 |
| 20260502164033 | 79 | 294 | 3.0 | 6.0 | 0.00 | 0.00 | 0.00 | 30 | 1016.7 |
| 20260502164029 | 79 | 294 | 3.0 | 6.0 | 0.00 | 0.00 | 0.00 | 31 | 1016.7 |
| 20260502164025 | 79 | 284 | 2.0 | 6.0 | 0.00 | 0.00 | 0.00 | 31 | 1016.7 |
| 20260502164021 | 79 | 291 | 2.0 | 5.0 | 0.00 | 0.00 | 0.00 | 32 | 1016.7 |
| 20260502164017 | 79 | 300 | 2.0 | 5.0 | 0.00 | 0.00 | 0.00 | 31 | 1016.7 |
| 20260502164008 | 79 | 316 | 2.0 | 5.0 | 0.00 | 0.00 | 0.00 | 32 | 1016.8 |
| 20260502164004 | 75 | 292 | 1.0 | 3.0 | 0.00 | 0.00 | 0.00 | 31 | 1015.2 |
| 20260502164000 | 79 | 313 | 2.0 | 5.0 | 0.00 | 0.00 | 0.00 | 30 | 1016.8 |
| 20260502163956 | 78 | 315 | 1.0 | 5.0 | 0.00 | 0.00 | 0.00 | 30 | 1016.7 |
| 20260502163952 | 79 | 319 | 1.0 | 4.0 | 0.00 | 0.00 | 0.00 | 32 | 1016.7 |
| 20260502163948 | 79 | 355 | 1.0 | 4.0 | 0.00 | 0.00 | 0.00 | 30 | 1016.7 |
| 20260502163944 | 79 | 338 | 1.0 | 4.0 | 0.00 | 0.00 | 0.00 | 31 | 1016.7 |
| 20260502163940 | 79 | 23 | 1.0 | 4.0 | 0.00 | 0.00 | 0.00 | 29 | 1016.8 |
| 20260502163936 | 79 | 22 | 1.0 | 4.0 | 0.00 | 0.00 | 0.00 | 33 | 1016.8 |
| 20260502163931 | 79 | 22 | 2.0 | 5.0 | 0.00 | 0.00 | 0.00 | 33 | 1016.8 |
| 20260502163927 | 79 | 22 | 1.0 | 5.0 | 0.00 | 0.00 | 0.00 | 30 | 1016.8 |
| 20260502163923 | 79 | 334 | 2.0 | 5.0 | 0.00 | 0.00 | 0.00 | 28 | 1016.8 |
| 20260502163919 | 79 | 334 | 2.0 | 6.0 | 0.00 | 0.00 | 0.00 | 30 | 1016.8 |
| 20260502163911 | 75 | 292 | 1.0 | 3.0 | 0.00 | 0.00 | 0.00 | 31 | 1015.2 |
| 20260502163907 | 79 | 334 | 2.0 | 6.0 | 0.00 | 0.00 | 0.00 | 28 | 1016.8 |
| 20260502163858 | 79 | 334 | 2.0 | 6.0 | 0.00 | 0.00 | 0.00 | 28 | 1016.8 |
| 20260502163854 | 79 | 335 | 2.0 | 6.0 | 0.00 | 0.00 | 0.00 | 30 | 1016.8 |
| 20260502163850 | 79 | 333 | 3.0 | 6.0 | 0.00 | 0.00 | 0.00 | 29 | 1016.9 |
| 20260502163846 | 79 | 333 | 2.0 | 6.0 | 0.00 | 0.00 | 0.00 | 31 | 1016.9 |
| 20260502163842 | 79 | 333 | 2.0 | 6.0 | 0.00 | 0.00 | 0.00 | 30 | 1016.9 |
| 20260502163838 | 79 | 324 | 2.0 | 6.0 | 0.00 | 0.00 | 0.00 | 30 | 1016.9 |
| 20260502163834 | 79 | 329 | 2.0 | 6.0 | 0.00 | 0.00 | 0.00 | 28 | 1016.9 |
| 20260502163830 | 79 | 331 | 3.0 | 6.0 | 0.00 | 0.00 | 0.00 | 30 | 1017.0 |
| 20260502163826 | 79 | 331 | 3.0 | 6.0 | 0.00 | 0.00 | 0.00 | 29 | 1017.0 |
| 20260502163821 | 79 | 278 | 3.0 | 6.0 | 0.00 | 0.00 | 0.00 | 29 | 1017.0 |
| 20260502163817 | 79 | 306 | 3.0 | 6.0 | 0.00 | 0.00 | 0.00 | 29 | 1017.0 |
| 20260502163813 | 79 | 275 | 3.0 | 6.0 | 0.00 | 0.00 | 0.00 | 29 | 1017.0 |
| 20260502163809 | 75 | 292 | 1.0 | 3.0 | 0.00 | 0.00 | 0.00 | 32 | 1015.2 |
| 20260502163806 | 79 | 275 | 3.0 | 6.0 | 0.00 | 0.00 | 0.00 | 30 | 1017.0 |
| 20260502163801 | 79 | 327 | 3.0 | 6.0 | 0.00 | 0.00 | 0.00 | 30 | 1017.0 |
| 20260502163757 | 79 | 337 | 3.0 | 6.0 | 0.00 | 0.00 | 0.00 | 29 | 1017.0 |
| 20260502163753 | 79 | 338 | 3.0 | 6.0 | 0.00 | 0.00 | 0.00 | 31 | 1017.0 |
| 20260502163749 | 79 | 339 | 3.0 | 6.0 | 0.00 | 0.00 | 0.00 | 31 | 1017.0 |
| 20260502163745 | 75 | 292 | 1.0 | 3.0 | 0.00 | 0.00 | 0.00 | 32 | 1015.3 |
| 20260502163741 | 75 | 292 | 1.0 | 3.0 | 0.00 | 0.00 | 0.00 | 31 | 1015.2 |
| 20260502163525 | 79 | 331 | 3.0 | 6.0 | 0.00 | 0.00 | 0.00 | 31 | 1017.1 |
| 20260502163521 | 79 | 308 | 3.0 | 6.0 | 0.00 | 0.00 | 0.00 | 31 | 1017.1 |
| 20260502163517 | 79 | 290 | 3.0 | 6.0 | 0.00 | 0.00 | 0.00 | 31 | 1017.1 |
| 20260502163513 | 79 | 309 | 3.0 | 6.0 | 0.00 | 0.00 | 0.00 | 30 | 1017.1 |
| 20260502163509 | 76 | 292 | 1.0 | 2.0 | 0.00 | 0.00 | 0.00 | 31 | 1015.3 |
| 20260502163501 | 75 | 292 | 1.0 | 2.0 | 0.00 | 0.00 | 0.00 | 31 | 1015.2 |
| 20260502163457 | 79 | 309 | 3.0 | 6.0 | 0.00 | 0.00 | 0.00 | 31 | 1017.1 |
| 20260502163453 | 79 | 309 | 3.0 | 6.0 | 0.00 | 0.00 | 0.00 | 31 | 1017.1 |
| 20260502163449 | 79 | 317 | 3.0 | 6.0 | 0.00 | 0.00 | 0.00 | 30 | 1017.1 |
| 20260502163445 | 79 | 329 | 2.0 | 6.0 | 0.00 | 0.00 | 0.00 | 31 | 1017.1 |
| 20260502163441 | 78 | 307 | 2.0 | 6.0 | 0.00 | 0.00 | 0.00 | 31 | 1017.1 |
| 20260502163436 | 78 | 311 | 2.0 | 6.0 | 0.00 | 0.00 | 0.00 | 30 | 1017.1 |
| 20260502163432 | 78 | 5 | 2.0 | 6.0 | 0.00 | 0.00 | 0.00 | 31 | 1017.1 |
| 20260502163428 | 78 | 333 | 2.0 | 6.0 | 0.00 | 0.00 | 0.00 | 31 | 1017.1 |
| 20260502163424 | 78 | 317 | 1.0 | 6.0 | 0.00 | 0.00 | 0.00 | 31 | 1017.2 |
| 20260502163420 | 78 | 259 | 2.0 | 4.0 | 0.00 | 0.00 | 0.00 | 30 | 1017.2 |
| 20260502163416 | 78 | 186 | 2.0 | 6.0 | 0.00 | 0.00 | 0.00 | 31 | 1017.2 |
| 20260502163412 | 78 | 111 | 2.0 | 6.0 | 0.00 | 0.00 | 0.00 | 32 | 1017.2 |
| 20260502163408 | 75 | 291 | 1.0 | 2.0 | 0.00 | 0.00 | 0.00 | 32 | 1015.2 |
| 20260502163359 | 78 | 111 | 2.0 | 6.0 | 0.00 | 0.00 | 0.00 | 33 | 1017.2 |
| 20260502163355 | 79 | 109 | 2.0 | 7.0 | 0.00 | 0.00 | 0.00 | 32 | 1017.2 |
| 20260502163351 | 79 | 108 | 2.0 | 7.0 | 0.00 | 0.00 | 0.00 | 30 | 1017.2 |
| 20260502163347 | 78 | 101 | 3.0 | 10.0 | 0.00 | 0.00 | 0.00 | 31 | 1017.2 |
| 20260502163343 | 78 | 313 | 3.0 | 10.0 | 0.00 | 0.00 | 0.00 | 31 | 1017.3 |
| 20260502163335 | 78 | 313 | 3.0 | 10.0 | 0.00 | 0.00 | 0.00 | 31 | 1017.3 |
| 20260502163331 | 78 | 283 | 3.0 | 10.0 | 0.00 | 0.00 | 0.00 | 31 | 1017.3 |
| 20260502163327 | 78 | 284 | 3.0 | 10.0 | 0.00 | 0.00 | 0.00 | 31 | 1017.3 |
| 20260502163323 | 78 | 279 | 3.0 | 10.0 | 0.00 | 0.00 | 0.00 | 30 | 1017.3 |
| 20260502163318 | 78 | 318 | 3.0 | 10.0 | 0.00 | 0.00 | 0.00 | 31 | 1017.4 |
| 20260502163314 | 78 | 293 | 3.0 | 10.0 | 0.00 | 0.00 | 0.00 | 30 | 1017.4 |
| 20260502163310 | 78 | 293 | 3.0 | 10.0 | 0.00 | 0.00 | 0.00 | 30 | 1017.4 |
| 20260502163306 | 76 | 291 | 1.0 | 2.0 | 0.00 | 0.00 | 0.00 | 32 | 1015.3 |
| 20260502163302 | 78 | 303 | 3.0 | 10.0 | 0.00 | 0.00 | 0.00 | 33 | 1017.4 |
| 20260502163258 | 78 | 324 | 3.0 | 10.0 | 0.00 | 0.00 | 0.00 | 31 | 1017.4 |
| 20260502163254 | 78 | 329 | 2.0 | 8.0 | 0.00 | 0.00 | 0.00 | 32 | 1017.4 |
| 20260502163246 | 78 | 304 | 2.0 | 5.0 | 0.00 | 0.00 | 0.00 | 32 | 1017.4 |
| 20260502163242 | 78 | 303 | 2.0 | 5.0 | 0.00 | 0.00 | 0.00 | 32 | 1017.5 |
| 20260502163238 | 78 | 334 | 2.0 | 5.0 | 0.00 | 0.00 | 0.00 | 32 | 1017.5 |
| 20260502163234 | 78 | 331 | 2.0 | 5.0 | 0.00 | 0.00 | 0.00 | 32 | 1017.4 |
| 20260502163230 | 78 | 67 | 2.0 | 6.0 | 0.00 | 0.00 | 0.00 | 32 | 1017.4 |
| 20260502163226 | 78 | 315 | 2.0 | 8.0 | 0.00 | 0.00 | 0.00 | 31 | 1017.4 |
| 20260502163221 | 78 | 315 | 3.0 | 8.0 | 0.00 | 0.00 | 0.00 | 32 | 1017.4 |
| 20260502163217 | 78 | 315 | 3.0 | 8.0 | 0.00 | 0.00 | 0.00 | 32 | 1017.5 |
| 20260502163213 | 78 | 315 | 3.0 | 8.0 | 0.00 | 0.00 | 0.00 | 34 | 1017.5 |
| 20260502163209 | 78 | 316 | 3.0 | 8.0 | 0.00 | 0.00 | 0.00 | 31 | 1017.5 |
| 20260502163205 | 75 | 292 | 1.0 | 2.0 | 0.00 | 0.00 | 0.00 | 32 | 1015.3 |
| 20260502163201 | 78 | 196 | 3.0 | 8.0 | 0.00 | 0.00 | 0.00 | 31 | 1017.5 |
| 20260502163157 | 78 | 196 | 3.0 | 8.0 | 0.00 | 0.00 | 0.00 | 31 | 1017.5 |
| 20260502163153 | 75 | 292 | 1.0 | 3.0 | 0.00 | 0.00 | 0.00 | 32 | 1015.3 |
| 20260502163145 | 76 | 292 | 1.0 | 3.0 | 0.00 | 0.00 | 0.00 | 31 | 1015.3 |
| 20260502162930 | 78 | 195 | 4.0 | 8.0 | 0.00 | 0.00 | 0.00 | 29 | 1017.6 |
| 20260502162926 | 78 | 195 | 4.0 | 8.0 | 0.00 | 0.00 | 0.00 | 31 | 1017.6 |
| 20260502162922 | 78 | 278 | 4.0 | 8.0 | 0.00 | 0.00 | 0.00 | 32 | 1017.6 |
| 20260502162918 | 78 | 288 | 3.0 | 8.0 | 0.00 | 0.00 | 0.00 | 31 | 1017.6 |
| 20260502162914 | 78 | 303 | 3.0 | 8.0 | 0.00 | 0.00 | 0.00 | 31 | 1017.6 |
| 20260502162910 | 78 | 286 | 3.0 | 8.0 | 0.00 | 0.00 | 0.00 | 31 | 1017.6 |
| 20260502162905 | 76 | 292 | 1.0 | 3.0 | 0.00 | 0.00 | 0.00 | 32 | 1015.4 |
| 20260502162856 | 78 | 276 | 3.0 | 8.0 | 0.00 | 0.00 | 0.00 | 31 | 1017.6 |
| 20260502162852 | 78 | 268 | 3.0 | 8.0 | 0.00 | 0.00 | 0.00 | 32 | 1017.6 |
| 20260502162848 | 78 | 301 | 3.0 | 8.0 | 0.00 | 0.00 | 0.00 | 31 | 1017.6 |
| 20260502162844 | 78 | 308 | 3.0 | 8.0 | 0.00 | 0.00 | 0.00 | 31 | 1017.6 |
| 20260502162840 | 77 | 330 | 3.0 | 8.0 | 0.00 | 0.00 | 0.00 | 33 | 1017.8 |
| 20260502162836 | 77 | 329 | 3.0 | 8.0 | 0.00 | 0.00 | 0.00 | 33 | 1017.8 |
| 20260502162832 | 77 | 321 | 3.0 | 8.0 | 0.00 | 0.00 | 0.00 | 33 | 1017.6 |
| 20260502162828 | 77 | 307 | 3.0 | 8.0 | 0.00 | 0.00 | 0.00 | 33 | 1017.6 |
| 20260502162824 | 77 | 331 | 3.0 | 8.0 | 0.00 | 0.00 | 0.00 | 33 | 1017.8 |
| 20260502162819 | 77 | 337 | 3.0 | 7.0 | 0.00 | 0.00 | 0.00 | 33 | 1017.8 |
| 20260502162815 | 77 | 54 | 3.0 | 7.0 | 0.00 | 0.00 | 0.00 | 34 | 1017.8 |
| 20260502162811 | 77 | 46 | 3.0 | 7.0 | 0.00 | 0.00 | 0.00 | 34 | 1017.8 |
| 20260502162807 | 76 | 292 | 2.0 | 3.0 | 0.00 | 0.00 | 0.00 | 32 | 1015.4 |
| 20260502162803 | 77 | 22 | 3.0 | 7.0 | 0.00 | 0.00 | 0.00 | 34 | 1017.9 |
| 20260502162759 | 77 | 333 | 3.0 | 5.0 | 0.00 | 0.00 | 0.00 | 33 | 1017.8 |
| 20260502162755 | 76 | 296 | 3.0 | 5.0 | 0.00 | 0.00 | 0.00 | 33 | 1017.9 |
| 20260502162751 | 76 | 296 | 3.0 | 5.0 | 0.00 | 0.00 | 0.00 | 33 | 1017.9 |
| 20260502162747 | 76 | 296 | 3.0 | 5.0 | 0.00 | 0.00 | 0.00 | 34 | 1017.9 |
| 20260502162743 | 76 | 315 | 3.0 | 5.0 | 0.00 | 0.00 | 0.00 | 34 | 1017.9 |
| 20260502162739 | 76 | 329 | 3.0 | 8.0 | 0.00 | 0.00 | 0.00 | 34 | 1017.9 |
| 20260502162734 | 76 | 340 | 3.0 | 8.0 | 0.00 | 0.00 | 0.00 | 33 | 1017.9 |
| 20260502162730 | 76 | 336 | 3.0 | 8.0 | 0.00 | 0.00 | 0.00 | 33 | 1017.9 |
| 20260502162726 | 76 | 334 | 3.0 | 8.0 | 0.00 | 0.00 | 0.00 | 33 | 1018.0 |
| 20260502162722 | 76 | 38 | 3.0 | 8.0 | 0.00 | 0.00 | 0.00 | 33 | 1017.9 |
| 20260502162718 | 76 | 292 | 2.0 | 3.0 | 0.00 | 0.00 | 0.00 | 31 | 1015.4 |
| 20260502162714 | 76 | 292 | 2.0 | 3.0 | 0.00 | 0.00 | 0.00 | 32 | 1015.3 |
| 20260502162706 | 76 | 292 | 2.0 | 4.0 | 0.00 | 0.00 | 0.00 | 33 | 1015.4 |
| 20260502162450 | 76 | 332 | 3.0 | 8.0 | 0.00 | 0.00 | 0.00 | 33 | 1018.0 |
| 20260502162446 | 76 | 323 | 3.0 | 8.0 | 0.00 | 0.00 | 0.00 | 33 | 1018.0 |
| 20260502162442 | 76 | 323 | 3.0 | 8.0 | 0.00 | 0.00 | 0.00 | 35 | 1018.0 |
| 20260502162437 | 76 | 319 | 3.0 | 8.0 | 0.00 | 0.00 | 0.00 | 35 | 1018.0 |
| 20260502162429 | 76 | 302 | 4.0 | 8.0 | 0.00 | 0.00 | 0.00 | 34 | 1018.1 |
| 20260502162425 | 76 | 344 | 3.0 | 8.0 | 0.00 | 0.00 | 0.00 | 34 | 1018.0 |
| 20260502162421 | 76 | 312 | 3.0 | 8.0 | 0.00 | 0.00 | 0.00 | 34 | 1018.0 |
| 20260502162417 | 76 | 251 | 3.0 | 8.0 | 0.00 | 0.00 | 0.00 | 34 | 1018.0 |
| 20260502162413 | 76 | 250 | 3.0 | 8.0 | 0.00 | 0.00 | 0.00 | 34 | 1018.0 |
| 20260502162409 | 76 | 250 | 3.0 | 8.0 | 0.00 | 0.00 | 0.00 | 33 | 1018.0 |
| 20260502162405 | 76 | 292 | 2.0 | 4.0 | 0.00 | 0.00 | 0.00 | 33 | 1015.4 |
| 20260502162401 | 76 | 250 | 3.0 | 8.0 | 0.00 | 0.00 | 0.00 | 33 | 1018.1 |
| 20260502162351 | 76 | 250 | 3.0 | 8.0 | 0.00 | 0.00 | 0.00 | 34 | 1018.1 |
| 20260502162347 | 76 | 270 | 3.0 | 8.0 | 0.00 | 0.00 | 0.00 | 34 | 1018.1 |
| 20260502162343 | 76 | 283 | 3.0 | 8.0 | 0.00 | 0.00 | 0.00 | 34 | 1018.2 |
| 20260502162339 | 76 | 299 | 2.0 | 8.0 | 0.00 | 0.00 | 0.00 | 34 | 1018.1 |
| 20260502162331 | 76 | 355 | 2.0 | 5.0 | 0.00 | 0.00 | 0.00 | 34 | 1018.1 |
| 20260502162327 | 76 | 300 | 2.0 | 4.0 | 0.00 | 0.00 | 0.00 | 35 | 1018.1 |
| 20260502162323 | 76 | 225 | 2.0 | 5.0 | 0.00 | 0.00 | 0.00 | 35 | 1018.2 |
| 20260502162319 | 76 | 64 | 2.0 | 6.0 | 0.00 | 0.00 | 0.00 | 36 | 1018.1 |
| 20260502162315 | 76 | 64 | 3.0 | 6.0 | 0.00 | 0.00 | 0.00 | 34 | 1018.1 |
| 20260502162307 | 76 | 65 | 3.0 | 6.0 | 0.00 | 0.00 | 0.00 | 34 | 1018.2 |
| 20260502162304 | 76 | 292 | 2.0 | 4.0 | 0.00 | 0.00 | 0.00 | 32 | 1015.4 |
| 20260502162258 | 76 | 355 | 3.0 | 6.0 | 0.00 | 0.00 | 0.00 | 35 | 1018.2 |
| 20260502162254 | 75 | 355 | 3.0 | 6.0 | 0.00 | 0.00 | 0.00 | 35 | 1018.2 |
| 20260502162250 | 75 | 317 | 3.0 | 6.0 | 0.00 | 0.00 | 0.00 | 36 | 1018.2 |
| 20260502162246 | 75 | 314 | 3.0 | 6.0 | 0.00 | 0.00 | 0.00 | 35 | 1018.2 |
| 20260502162238 | 75 | 320 | 3.0 | 6.0 | 0.00 | 0.00 | 0.00 | 36 | 1018.2 |
| 20260502162234 | 75 | 48 | 3.0 | 6.0 | 0.00 | 0.00 | 0.00 | 35 | 1018.2 |
| 20260502162225 | 75 | 232 | 3.0 | 6.0 | 0.00 | 0.00 | 0.00 | 35 | 1018.3 |
| 20260502162221 | 76 | 291 | 2.0 | 4.0 | 0.00 | 0.00 | 0.00 | 32 | 1015.4 |
| 20260502162217 | 76 | 291 | 2.0 | 4.0 | 0.00 | 0.00 | 0.00 | 33 | 1015.4 |
| 20260502162213 | 76 | 292 | 2.0 | 4.0 | 0.00 | 0.00 | 0.00 | 33 | 1015.4 |
| 20260502161958 | 75 | 197 | 3.0 | 6.0 | 0.00 | 0.00 | 0.00 | 34 | 1018.2 |
| 20260502161954 | 75 | 202 | 3.0 | 6.0 | 0.00 | 0.00 | 0.00 | 34 | 1018.3 |
| 20260502161946 | 75 | 136 | 3.0 | 6.0 | 0.00 | 0.00 | 0.00 | 33 | 1018.3 |
| 20260502161942 | 75 | 241 | 2.0 | 9.0 | 0.00 | 0.00 | 0.00 | 34 | 1018.4 |
| 20260502161938 | 75 | 244 | 2.0 | 9.0 | 0.00 | 0.00 | 0.00 | 35 | 1018.4 |
| 20260502161934 | 75 | 240 | 2.0 | 9.0 | 0.00 | 0.00 | 0.00 | 33 | 1018.4 |
| 20260502161930 | 75 | 252 | 2.0 | 9.0 | 0.00 | 0.00 | 0.00 | 34 | 1018.4 |
| 20260502161922 | 75 | 304 | 2.0 | 9.0 | 0.00 | 0.00 | 0.00 | 34 | 1018.4 |
| 20260502161917 | 75 | 259 | 2.0 | 9.0 | 0.00 | 0.00 | 0.00 | 35 | 1018.5 |
| 20260502161913 | 75 | 246 | 2.0 | 9.0 | 0.00 | 0.00 | 0.00 | 34 | 1018.4 |
| 20260502161909 | 75 | 248 | 2.0 | 9.0 | 0.00 | 0.00 | 0.00 | 36 | 1018.4 |
| 20260502161905 | 75 | 207 | 2.0 | 9.0 | 0.00 | 0.00 | 0.00 | 35 | 1018.4 |
| 20260502161901 | 76 | 292 | 2.0 | 4.0 | 0.00 | 0.00 | 0.00 | 33 | 1015.5 |
| 20260502161848 | 75 | 343 | 2.0 | 9.0 | 0.00 | 0.00 | 0.00 | 36 | 1018.4 |
| 20260502161844 | 75 | 335 | 2.0 | 9.0 | 0.00 | 0.00 | 0.00 | 36 | 1018.5 |
| 20260502161840 | 75 | 335 | 3.0 | 9.0 | 0.00 | 0.00 | 0.00 | 34 | 1018.4 |
| 20260502161836 | 75 | 335 | 3.0 | 9.0 | 0.00 | 0.00 | 0.00 | 36 | 1018.5 |
| 20260502161831 | 75 | 346 | 3.0 | 9.0 | 0.00 | 0.00 | 0.00 | 36 | 1018.5 |
| 20260502161823 | 75 | 225 | 3.0 | 9.0 | 0.00 | 0.00 | 0.00 | 35 | 1018.5 |
| 20260502161819 | 75 | 223 | 3.0 | 9.0 | 0.00 | 0.00 | 0.00 | 34 | 1018.5 |
| 20260502161815 | 75 | 286 | 3.0 | 9.0 | 0.00 | 0.00 | 0.00 | 35 | 1018.6 |
| 20260502161811 | 75 | 286 | 3.0 | 9.0 | 0.00 | 0.00 | 0.00 | 35 | 1018.6 |
| 20260502161807 | 75 | 302 | 3.0 | 9.0 | 0.00 | 0.00 | 0.00 | 35 | 1018.6 |
| 20260502161803 | 76 | 292 | 2.0 | 4.0 | 0.00 | 0.00 | 0.00 | 33 | 1015.5 |
| 20260502161755 | 75 | 304 | 3.0 | 9.0 | 0.00 | 0.00 | 0.00 | 36 | 1018.6 |
| 20260502161751 | 74 | 297 | 3.0 | 7.0 | 0.00 | 0.00 | 0.00 | 36 | 1018.6 |
| 20260502161747 | 74 | 325 | 3.0 | 6.0 | 0.00 | 0.00 | 0.00 | 36 | 1018.6 |
| 20260502161743 | 74 | 15 | 3.0 | 6.0 | 0.00 | 0.00 | 0.00 | 35 | 1018.6 |
| 20260502161739 | 74 | 42 | 3.0 | 8.0 | 0.00 | 0.00 | 0.00 | 38 | 1018.6 |
| 20260502161730 | 74 | 53 | 3.0 | 9.0 | 0.00 | 0.00 | 0.00 | 37 | 1018.6 |
| 20260502161726 | 74 | 327 | 3.0 | 9.0 | 0.00 | 0.00 | 0.00 | 35 | 1018.6 |
| 20260502161722 | 74 | 327 | 3.0 | 9.0 | 0.00 | 0.00 | 0.00 | 33 | 1018.7 |
| 20260502161718 | 74 | 327 | 4.0 | 9.0 | 0.00 | 0.00 | 0.00 | 35 | 1018.6 |
| 20260502161714 | 74 | 325 | 4.0 | 9.0 | 0.00 | 0.00 | 0.00 | 34 | 1018.7 |
| 20260502161710 | 74 | 325 | 4.0 | 9.0 | 0.00 | 0.00 | 0.00 | 36 | 1018.7 |
| 20260502161706 | 76 | 292 | 2.0 | 4.0 | 0.00 | 0.00 | 0.00 | 33 | 1015.5 |
| 20260502161702 | 76 | 292 | 2.0 | 4.0 | 0.00 | 0.00 | 0.00 | 33 | 1015.4 |
| 20260502161654 | 76 | 277 | 2.0 | 4.0 | 0.00 | 0.00 | 0.00 | 33 | 1015.5 |
| 20260502161438 | 74 | 319 | 4.0 | 9.0 | 0.00 | 0.00 | 0.00 | 35 | 1018.7 |
| 20260502161434 | 74 | 287 | 4.0 | 9.0 | 0.00 | 0.00 | 0.00 | 35 | 1018.7 |
| 20260502161430 | 74 | 290 | 4.0 | 9.0 | 0.00 | 0.00 | 0.00 | 35 | 1018.7 |
| 20260502161426 | 74 | 260 | 4.0 | 9.0 | 0.00 | 0.00 | 0.00 | 35 | 1018.8 |
| 20260502161418 | 74 | 269 | 3.0 | 8.0 | 0.00 | 0.00 | 0.00 | 38 | 1018.8 |
| 20260502161414 | 74 | 338 | 3.0 | 8.0 | 0.00 | 0.00 | 0.00 | 38 | 1018.7 |
| 20260502161410 | 74 | 331 | 3.0 | 8.0 | 0.00 | 0.00 | 0.00 | 35 | 1018.8 |
| 20260502161406 | 74 | 291 | 3.0 | 8.0 | 0.00 | 0.00 | 0.00 | 35 | 1018.8 |
| 20260502161402 | 76 | 296 | 2.0 | 4.0 | 0.00 | 0.00 | 0.00 | 33 | 1015.5 |
| 20260502161349 | 74 | 263 | 3.0 | 7.0 | 0.00 | 0.00 | 0.00 | 36 | 1018.8 |
| 20260502161345 | 74 | 292 | 3.0 | 7.0 | 0.00 | 0.00 | 0.00 | 36 | 1018.8 |
| 20260502161341 | 76 | 296 | 2.0 | 4.0 | 0.00 | 0.00 | 0.00 | 33 | 1015.5 |
| 20260502161337 | 76 | 298 | 2.0 | 4.0 | 0.00 | 0.00 | 0.00 | 34 | 1015.5 |
| 20260502161333 | 76 | 298 | 2.0 | 4.0 | 0.00 | 0.00 | 0.00 | 32 | 1015.6 |
| 20260502161329 | 76 | 298 | 2.0 | 4.0 | 0.00 | 0.00 | 0.00 | 32 | 1015.5 |
| 20260502160902 | 76 | 298 | 2.0 | 4.0 | 0.00 | 0.00 | 0.00 | 33 | 1015.6 |
| 20260502160858 | 74 | 305 | 3.0 | 7.0 | 0.00 | 0.00 | 0.00 | 36 | 1018.8 |
| 20260502160854 | 74 | 287 | 3.0 | 7.0 | 0.00 | 0.00 | 0.00 | 36 | 1018.8 |
| 20260502160844 | 74 | 304 | 3.0 | 7.0 | 0.00 | 0.00 | 0.00 | 36 | 1018.8 |
| 20260502160840 | 74 | 315 | 3.0 | 7.0 | 0.00 | 0.00 | 0.00 | 36 | 1018.8 |
| 20260502160832 | 74 | 246 | 3.0 | 7.0 | 0.00 | 0.00 | 0.00 | 37 | 1018.8 |
| 20260502160828 | 74 | 244 | 3.0 | 7.0 | 0.00 | 0.00 | 0.00 | 37 | 1018.9 |
| 20260502160824 | 74 | 245 | 3.0 | 7.0 | 0.00 | 0.00 | 0.00 | 37 | 1018.8 |
| 20260502160820 | 74 | 315 | 4.0 | 10.0 | 0.00 | 0.00 | 0.00 | 37 | 1018.9 |
| 20260502160816 | 74 | 301 | 4.0 | 10.0 | 0.00 | 0.00 | 0.00 | 36 | 1018.9 |
| 20260502160808 | 74 | 279 | 4.0 | 10.0 | 0.00 | 0.00 | 0.00 | 36 | 1018.9 |
| 20260502160804 | 76 | 298 | 2.0 | 4.0 | 0.00 | 0.00 | 0.00 | 32 | 1015.6 |
| 20260502160800 | 74 | 335 | 4.0 | 10.0 | 0.00 | 0.00 | 0.00 | 37 | 1018.9 |
| 20260502160756 | 74 | 262 | 4.0 | 10.0 | 0.00 | 0.00 | 0.00 | 36 | 1018.9 |
| 20260502160751 | 74 | 277 | 4.0 | 10.0 | 0.00 | 0.00 | 0.00 | 36 | 1018.9 |
| 20260502160747 | 74 | 314 | 4.0 | 10.0 | 0.00 | 0.00 | 0.00 | 36 | 1018.9 |
| 20260502160739 | 74 | 315 | 4.0 | 10.0 | 0.00 | 0.00 | 0.00 | 35 | 1018.9 |
| 20260502160735 | 74 | 263 | 4.0 | 10.0 | 0.00 | 0.00 | 0.00 | 36 | 1018.9 |
| 20260502160731 | 74 | 271 | 4.0 | 10.0 | 0.00 | 0.00 | 0.00 | 36 | 1019.0 |
| 20260502160727 | 74 | 310 | 4.0 | 10.0 | 0.00 | 0.00 | 0.00 | 35 | 1018.9 |
| 20260502160723 | 73 | 295 | 4.0 | 10.0 | 0.00 | 0.00 | 0.00 | 37 | 1019.0 |
| 20260502160714 | 73 | 302 | 4.0 | 10.0 | 0.00 | 0.00 | 0.00 | 37 | 1019.0 |
| 20260502160710 | 73 | 323 | 4.0 | 10.0 | 0.00 | 0.00 | 0.00 | 37 | 1019.1 |
| 20260502160706 | 73 | 281 | 3.0 | 10.0 | 0.00 | 0.00 | 0.00 | 37 | 1019.1 |
| 20260502160702 | 76 | 306 | 2.0 | 4.0 | 0.00 | 0.00 | 0.00 | 34 | 1015.6 |
| 20260502160658 | 73 | 306 | 3.0 | 10.0 | 0.00 | 0.00 | 0.00 | 36 | 1019.1 |
| 20260502160654 | 73 | 315 | 3.0 | 10.0 | 0.00 | 0.00 | 0.00 | 35 | 1019.1 |
| 20260502160646 | 73 | 331 | 4.0 | 10.0 | 0.00 | 0.00 | 0.00 | 36 | 1019.1 |
| 20260502160642 | 73 | 298 | 4.0 | 10.0 | 0.00 | 0.00 | 0.00 | 37 | 1019.1 |
| 20260502160637 | 73 | 310 | 4.0 | 10.0 | 0.00 | 0.00 | 0.00 | 37 | 1019.1 |
| 20260502160633 | 73 | 319 | 4.0 | 10.0 | 0.00 | 0.00 | 0.00 | 37 | 1019.1 |
| 20260502160629 | 73 | 355 | 4.0 | 10.0 | 0.00 | 0.00 | 0.00 | 34 | 1019.2 |
| 20260502160621 | 73 | 331 | 4.0 | 10.0 | 0.00 | 0.00 | 0.00 | 34 | 1019.2 |
| 20260502160617 | 73 | 315 | 4.0 | 10.0 | 0.00 | 0.00 | 0.00 | 35 | 1019.1 |
| 20260502160613 | 73 | 313 | 5.0 | 10.0 | 0.00 | 0.00 | 0.00 | 36 | 1019.1 |
| 20260502160609 | 73 | 324 | 5.0 | 10.0 | 0.00 | 0.00 | 0.00 | 35 | 1019.1 |
| 20260502160605 | 73 | 355 | 5.0 | 10.0 | 0.00 | 0.00 | 0.00 | 36 | 1019.2 |
| 20260502160601 | 76 | 307 | 2.0 | 4.0 | 0.00 | 0.00 | 0.00 | 33 | 1015.6 |
| 20260502160551 | 73 | 306 | 5.0 | 10.0 | 0.00 | 0.00 | 0.00 | 36 | 1019.3 |
| 20260502160547 | 73 | 329 | 5.0 | 10.0 | 0.00 | 0.00 | 0.00 | 36 | 1019.3 |
| 20260502160543 | 73 | 355 | 5.0 | 10.0 | 0.00 | 0.00 | 0.00 | 36 | 1019.3 |
| 20260502160539 | 73 | 328 | 5.0 | 10.0 | 0.00 | 0.00 | 0.00 | 36 | 1019.2 |
| 20260502160535 | 73 | 314 | 5.0 | 10.0 | 0.00 | 0.00 | 0.00 | 36 | 1019.4 |
| 20260502160527 | 73 | 309 | 5.0 | 10.0 | 0.00 | 0.00 | 0.00 | 36 | 1019.3 |
| 20260502160523 | 73 | 300 | 5.0 | 10.0 | 0.00 | 0.00 | 0.00 | 37 | 1019.4 |
| 20260502160519 | 73 | 331 | 5.0 | 10.0 | 0.00 | 0.00 | 0.00 | 36 | 1019.3 |
| 20260502160515 | 73 | 306 | 4.0 | 9.0 | 0.00 | 0.00 | 0.00 | 36 | 1019.3 |
| 20260502160511 | 73 | 306 | 5.0 | 9.0 | 0.00 | 0.00 | 0.00 | 37 | 1019.3 |
| 20260502160503 | 76 | 307 | 2.0 | 4.0 | 0.00 | 0.00 | 0.00 | 33 | 1015.7 |
| 20260502160454 | 73 | 291 | 4.0 | 9.0 | 0.00 | 0.00 | 0.00 | 37 | 1019.3 |
| 20260502160450 | 73 | 294 | 5.0 | 9.0 | 0.00 | 0.00 | 0.00 | 37 | 1019.3 |
| 20260502160446 | 72 | 312 | 4.0 | 9.0 | 0.00 | 0.00 | 0.00 | 35 | 1019.3 |
| 20260502160442 | 72 | 335 | 4.0 | 9.0 | 0.00 | 0.00 | 0.00 | 36 | 1019.3 |
| 20260502160438 | 72 | 303 | 4.0 | 9.0 | 0.00 | 0.00 | 0.00 | 35 | 1019.3 |
| 20260502160430 | 72 | 286 | 4.0 | 9.0 | 0.00 | 0.00 | 0.00 | 38 | 1019.4 |
| 20260502160426 | 72 | 326 | 4.0 | 9.0 | 0.00 | 0.00 | 0.00 | 37 | 1019.3 |
| 20260502160422 | 72 | 268 | 4.0 | 9.0 | 0.00 | 0.00 | 0.00 | 37 | 1019.3 |
| 20260502160418 | 72 | 282 | 4.0 | 9.0 | 0.00 | 0.00 | 0.00 | 37 | 1019.3 |
| 20260502160413 | 72 | 300 | 4.0 | 9.0 | 0.00 | 0.00 | 0.00 | 38 | 1019.4 |
| 20260502160404 | 72 | 305 | 4.0 | 9.0 | 0.00 | 0.00 | 0.00 | 37 | 1019.3 |
| 20260502160400 | 76 | 238 | 2.0 | 3.0 | 0.00 | 0.00 | 0.00 | 33 | 1015.6 |
| 20260502160356 | 72 | 303 | 3.0 | 9.0 | 0.00 | 0.00 | 0.00 | 37 | 1019.4 |
| 20260502160352 | 72 | 332 | 3.0 | 9.0 | 0.00 | 0.00 | 0.00 | 38 | 1019.4 |
| 20260502160343 | 72 | 280 | 4.0 | 9.0 | 0.00 | 0.00 | 0.00 | 37 | 1019.3 |
| 20260502160339 | 72 | 338 | 4.0 | 9.0 | 0.00 | 0.00 | 0.00 | 38 | 1019.4 |
| 20260502160331 | 71 | 287 | 4.0 | 8.0 | 0.00 | 0.00 | 0.00 | 36 | 1019.4 |
| 20260502160326 | 71 | 255 | 4.0 | 11.0 | 0.00 | 0.00 | 0.00 | 36 | 1019.4 |
| 20260502160322 | 71 | 259 | 4.0 | 11.0 | 0.00 | 0.00 | 0.00 | 39 | 1019.4 |
| 20260502160318 | 71 | 228 | 4.0 | 11.0 | 0.00 | 0.00 | 0.00 | 37 | 1019.5 |
| 20260502160314 | 71 | 330 | 4.0 | 11.0 | 0.00 | 0.00 | 0.00 | 36 | 1019.5 |
| 20260502160306 | 71 | 331 | 4.0 | 11.0 | 0.00 | 0.00 | 0.00 | 37 | 1019.5 |
| 20260502160302 | 76 | 236 | 2.0 | 3.0 | 0.00 | 0.00 | 0.00 | 32 | 1015.7 |
| 20260502160258 | 71 | 294 | 5.0 | 11.0 | 0.00 | 0.00 | 0.00 | 36 | 1019.5 |
| 20260502160254 | 71 | 290 | 5.0 | 11.0 | 0.00 | 0.00 | 0.00 | 36 | 1019.5 |
| 20260502160250 | 71 | 313 | 4.0 | 11.0 | 0.00 | 0.00 | 0.00 | 37 | 1019.5 |
| 20260502160245 | 71 | 313 | 4.0 | 11.0 | 0.00 | 0.00 | 0.00 | 38 | 1019.5 |
| 20260502160237 | 71 | 315 | 4.0 | 11.0 | 0.00 | 0.00 | 0.00 | 39 | 1019.5 |
| 20260502160233 | 71 | 317 | 3.0 | 8.0 | 0.00 | 0.00 | 0.00 | 39 | 1019.4 |
| 20260502160229 | 71 | 291 | 3.0 | 8.0 | 0.00 | 0.00 | 0.00 | 38 | 1019.5 |
| 20260502160225 | 71 | 263 | 3.0 | 8.0 | 0.00 | 0.00 | 0.00 | 38 | 1019.5 |
| 20260502160221 | 71 | 323 | 3.0 | 8.0 | 0.00 | 0.00 | 0.00 | 38 | 1019.7 |
| 20260502160213 | 71 | 316 | 3.0 | 8.0 | 0.00 | 0.00 | 0.00 | 38 | 1019.5 |
| 20260502160209 | 71 | 323 | 3.0 | 9.0 | 0.00 | 0.00 | 0.00 | 37 | 1019.5 |
| 20260502160204 | 71 | 344 | 4.0 | 9.0 | 0.00 | 0.00 | 0.00 | 38 | 1019.7 |
| 20260502160200 | 76 | 236 | 2.0 | 3.0 | 0.00 | 0.00 | 0.00 | 31 | 1015.7 |
| 20260502160156 | 71 | 254 | 4.0 | 9.0 | 0.00 | 0.00 | 0.00 | 38 | 1019.7 |
| 20260502160152 | 71 | 254 | 4.0 | 9.0 | 0.00 | 0.00 | 0.00 | 37 | 1019.7 |
| 20260502160144 | 70 | 253 | 4.0 | 9.0 | 0.00 | 0.00 | 0.00 | 37 | 1019.7 |
| 20260502160140 | 70 | 259 | 4.0 | 9.0 | 0.00 | 0.00 | 0.00 | 37 | 1019.7 |
| 20260502160136 | 70 | 292 | 4.0 | 9.0 | 0.00 | 0.00 | 0.00 | 37 | 1019.7 |
| 20260502160132 | 70 | 278 | 4.0 | 9.0 | 0.00 | 0.00 | 0.00 | 38 | 1019.7 |
| 20260502160128 | 70 | 272 | 4.0 | 9.0 | 0.00 | 0.00 | 0.00 | 37 | 1019.8 |
| 20260502160124 | 70 | 284 | 4.0 | 9.0 | 0.00 | 0.00 | 0.00 | 37 | 1019.8 |
| 20260502160120 | 76 | 236 | 2.0 | 4.0 | 0.00 | 0.00 | 0.00 | 32 | 1015.7 |
| 20260502160111 | 76 | 236 | 2.0 | 4.0 | 0.00 | 0.00 | 0.00 | 30 | 1015.7 |
| 20260502160107 | 76 | 236 | 2.0 | 4.0 | 0.00 | 0.00 | 0.00 | 31 | 1015.7 |
| 20260501184701 | 60 | 94 | 2.0 | 10.0 | 0.00 | 0.00 | 0.00 | 43 | 1021.8 |
| 20260501184602 | 60 | 113 | 2.0 | 10.0 | 0.00 | 0.00 | 0.00 | 43 | 1021.9 |
| 20260501184501 | 60 | 88 | 2.0 | 10.0 | 0.00 | 0.00 | 0.00 | 43 | 1021.9 |
| 20260501184400 | 60 | 86 | 2.0 | 10.0 | 0.00 | 0.00 | 0.00 | 43 | 1021.8 |
| 20260501184330 | 60 | 94 | 2.0 | 10.0 | 0.00 | 0.00 | 0.00 | 43 | 1021.8 |
| 20260501184301 | 60 | 108 | 2.0 | 10.0 | 0.00 | 0.00 | 0.00 | 42 | 1021.8 |
| 20260501184202 | 60 | 84 | 2.0 | 10.0 | 0.00 | 0.00 | 0.00 | 42 | 1021.8 |
| 20260501184100 | 60 | 107 | 2.0 | 10.0 | 0.00 | 0.00 | 0.00 | 42 | 1021.8 |
| 20260501184000 | 60 | 99 | 2.0 | 10.0 | 0.00 | 0.00 | 0.00 | 42 | 1021.8 |
| 20260501183901 | 60 | 96 | 3.0 | 10.0 | 0.00 | 0.00 | 0.00 | 42 | 1021.8 |
| 20260501183829 | 60 | 83 | 2.0 | 7.0 | 0.00 | 0.00 | 0.00 | 42 | 1021.8 |
| 20260501183801 | 60 | 127 | 2.0 | 7.0 | 0.00 | 0.00 | 0.00 | 42 | 1021.8 |
| 20260501183701 | 61 | 103 | 2.0 | 7.0 | 0.00 | 0.00 | 0.00 | 42 | 1021.8 |
| 20260501183600 | 61 | 105 | 3.0 | 7.0 | 0.00 | 0.00 | 0.00 | 42 | 1021.8 |
| 20260501183500 | 61 | 98 | 2.0 | 7.0 | 0.00 | 0.00 | 0.00 | 41 | 1021.7 |
| 20260501183400 | 61 | 74 | 2.0 | 7.0 | 0.00 | 0.00 | 0.00 | 42 | 1021.8 |
| 20260501183330 | 61 | 82 | 2.0 | 7.0 | 0.00 | 0.00 | 0.00 | 42 | 1021.7 |
| 20260501183301 | 61 | 68 | 2.0 | 7.0 | 0.00 | 0.00 | 0.00 | 42 | 1021.7 |
| 20260501183201 | 61 | 117 | 2.0 | 7.0 | 0.00 | 0.00 | 0.00 | 42 | 1021.7 |
| 20260501183100 | 61 | 139 | 2.0 | 8.0 | 0.00 | 0.00 | 0.00 | 42 | 1021.7 |
| 20260501183000 | 61 | 101 | 2.0 | 8.0 | 0.00 | 0.00 | 0.00 | 41 | 1021.7 |
| 20260501182900 | 61 | 110 | 2.0 | 8.0 | 0.00 | 0.00 | 0.00 | 41 | 1021.7 |
| 20260501182830 | 61 | 103 | 2.0 | 8.0 | 0.00 | 0.00 | 0.00 | 41 | 1021.7 |
| 20260501182801 | 61 | 90 | 2.0 | 8.0 | 0.00 | 0.00 | 0.00 | 41 | 1021.7 |
| 20260501182702 | 61 | 82 | 2.0 | 8.0 | 0.00 | 0.00 | 0.00 | 41 | 1021.7 |
| 20260501182607 | 61 | 50 | 2.0 | 8.0 | 0.00 | 0.00 | 0.00 | 41 | 1021.7 |
| 20260501182553 | 62 | 84 | 2.0 | 8.0 | 0.00 | 0.00 | 0.00 | 41 | 1021.7 |
| 20260501182546 | 61 | 118 | 2.0 | 8.0 | 0.00 | 0.00 | 0.00 | 41 | 1021.7 |
| 20260501182542 | 62 | 96 | 2.0 | 8.0 | 0.00 | 0.00 | 0.00 | 41 | 1021.7 |
| 20260501182305 | 62 | 105 | 2.0 | 8.0 | 0.00 | 0.00 | 0.00 | 41 | 1021.7 |
| 20260501182201 | 62 | 90 | 2.0 | 8.0 | 0.00 | 0.00 | 0.00 | 40 | 1021.7 |
| 20260501182102 | 62 | 99 | 2.0 | 8.0 | 0.00 | 0.00 | 0.00 | 40 | 1021.7 |
| 20260501182002 | 62 | 95 | 2.0 | 8.0 | 0.00 | 0.00 | 0.00 | 40 | 1021.7 |
| 20260501181901 | 62 | 88 | 2.0 | 8.0 | 0.00 | 0.00 | 0.00 | 40 | 1021.7 |
| 20260501181830 | 62 | 99 | 3.0 | 8.0 | 0.00 | 0.00 | 0.00 | 40 | 1021.6 |
| 20260501181801 | 62 | 82 | 3.0 | 8.0 | 0.00 | 0.00 | 0.00 | 40 | 1021.6 |
| 20260501181701 | 62 | 82 | 2.0 | 10.0 | 0.00 | 0.00 | 0.00 | 40 | 1021.6 |
| 20260501181601 | 62 | 96 | 3.0 | 10.0 | 0.00 | 0.00 | 0.00 | 40 | 1021.6 |
| 20260501181501 | 62 | 93 | 3.0 | 10.0 | 0.00 | 0.00 | 0.00 | 40 | 1021.6 |
| 20260501181401 | 62 | 93 | 2.0 | 10.0 | 0.00 | 0.00 | 0.00 | 40 | 1021.6 |
| 20260501181330 | 62 | 102 | 2.0 | 10.0 | 0.00 | 0.00 | 0.00 | 40 | 1021.6 |
| 20260501181301 | 62 | 103 | 2.0 | 10.0 | 0.00 | 0.00 | 0.00 | 40 | 1021.6 |
| 20260501181201 | 62 | 131 | 2.0 | 10.0 | 0.00 | 0.00 | 0.00 | 40 | 1021.6 |
| 20260501181101 | 62 | 80 | 2.0 | 10.0 | 0.00 | 0.00 | 0.00 | 40 | 1021.6 |
| 20260501181000 | 62 | 88 | 2.0 | 10.0 | 0.00 | 0.00 | 0.00 | 40 | 1021.6 |
| 20260501180901 | 62 | 101 | 2.0 | 10.0 | 0.00 | 0.00 | 0.00 | 40 | 1021.6 |
| 20260501180829 | 62 | 103 | 2.0 | 10.0 | 0.00 | 0.00 | 0.00 | 40 | 1021.6 |
| 20260501180801 | 63 | 99 | 2.0 | 10.0 | 0.00 | 0.00 | 0.00 | 39 | 1021.6 |
| 20260501180701 | 63 | 130 | 3.0 | 13.0 | 0.00 | 0.00 | 0.00 | 39 | 1021.5 |
| 20260501180604 | 63 | 99 | 3.0 | 13.0 | 0.00 | 0.00 | 0.00 | 39 | 1021.6 |
| 20260501180546 | 63 | 92 | 3.0 | 13.0 | 0.00 | 0.00 | 0.00 | 39 | 1021.6 |
| 20260501180542 | 63 | 117 | 3.0 | 13.0 | 0.00 | 0.00 | 0.00 | 39 | 1021.6 |
| 20260501180252 | 63 | 100 | 3.0 | 13.0 | 0.00 | 0.00 | 0.00 | 39 | 1021.6 |
| 20260501180152 | 63 | 67 | 3.0 | 13.0 | 0.00 | 0.00 | 0.00 | 39 | 1021.6 |
| 20260501180052 | 63 | 102 | 3.0 | 13.0 | 0.00 | 0.00 | 0.00 | 39 | 1021.6 |
| 20260501175952 | 63 | 96 | 3.0 | 13.0 | 0.00 | 0.00 | 0.00 | 39 | 1021.6 |
| 20260501175852 | 63 | 75 | 3.0 | 13.0 | 0.00 | 0.00 | 0.00 | 39 | 1021.7 |
| 20260501175829 | 63 | 72 | 3.0 | 13.0 | 0.00 | 0.00 | 0.00 | 39 | 1021.7 |
| 20260501175746 | 63 | 83 | 2.0 | 13.0 | 0.00 | 0.00 | 0.00 | 39 | 1021.7 |
| 20260501175645 | 63 | 65 | 2.0 | 11.0 | 0.00 | 0.00 | 0.00 | 39 | 1021.7 |
| 20260501175551 | 63 | 123 | 2.0 | 11.0 | 0.00 | 0.00 | 0.00 | 38 | 1021.6 |
| 20260501175446 | 63 | 84 | 2.0 | 11.0 | 0.00 | 0.00 | 0.00 | 39 | 1021.6 |
| 20260501175346 | 63 | 119 | 2.0 | 11.0 | 0.00 | 0.00 | 0.00 | 39 | 1021.6 |
| 20260501175330 | 63 | 115 | 2.0 | 11.0 | 0.00 | 0.00 | 0.00 | 39 | 1021.6 |
| 20260501175240 | 64 | 100 | 2.0 | 11.0 | 0.00 | 0.00 | 0.00 | 39 | 1021.6 |
| 20260501175140 | 64 | 96 | 2.0 | 7.0 | 0.00 | 0.00 | 0.00 | 39 | 1021.6 |
| 20260501175040 | 64 | 117 | 2.0 | 7.0 | 0.00 | 0.00 | 0.00 | 39 | 1021.7 |
| 20260501174940 | 64 | 96 | 2.0 | 7.0 | 0.00 | 0.00 | 0.00 | 39 | 1021.6 |
| 20260501174840 | 64 | 99 | 2.0 | 7.0 | 0.00 | 0.00 | 0.00 | 39 | 1021.6 |
| 20260501174829 | 64 | 74 | 2.0 | 7.0 | 0.00 | 0.00 | 0.00 | 39 | 1021.6 |
| 20260501174739 | 64 | 92 | 2.0 | 7.0 | 0.00 | 0.00 | 0.00 | 38 | 1021.6 |
| 20260501174638 | 64 | 95 | 2.0 | 7.0 | 0.00 | 0.00 | 0.00 | 38 | 1021.6 |
| 20260501174535 | 64 | 107 | 2.0 | 7.0 | 0.00 | 0.00 | 0.00 | 38 | 1021.6 |
| 20260501174435 | 64 | 125 | 2.0 | 7.0 | 0.00 | 0.00 | 0.00 | 38 | 1021.6 |
| 20260501174335 | 64 | 102 | 2.0 | 6.0 | 0.00 | 0.00 | 0.00 | 38 | 1021.6 |
| 20260501174329 | 64 | 106 | 2.0 | 6.0 | 0.00 | 0.00 | 0.00 | 38 | 1021.6 |
| 20260501174236 | 64 | 83 | 2.0 | 7.0 | 0.00 | 0.00 | 0.00 | 38 | 1021.7 |
| 20260501174136 | 64 | 64 | 2.0 | 7.0 | 0.00 | 0.00 | 0.00 | 38 | 1021.6 |
| 20260501174036 | 64 | 109 | 2.0 | 7.0 | 0.00 | 0.00 | 0.00 | 39 | 1021.6 |
| 20260501173934 | 64 | 119 | 2.0 | 7.0 | 0.00 | 0.00 | 0.00 | 38 | 1021.7 |
| 20260501173833 | 65 | 107 | 2.0 | 7.0 | 0.00 | 0.00 | 0.00 | 38 | 1021.6 |
| 20260501173828 | 65 | 103 | 2.0 | 7.0 | 0.00 | 0.00 | 0.00 | 38 | 1021.6 |
| 20260501173734 | 65 | 93 | 2.0 | 7.0 | 0.00 | 0.00 | 0.00 | 38 | 1021.6 |
| 20260501173634 | 65 | 108 | 2.0 | 7.0 | 0.00 | 0.00 | 0.00 | 37 | 1021.6 |
| 20260501173534 | 65 | 80 | 2.0 | 8.0 | 0.00 | 0.00 | 0.00 | 37 | 1021.6 |
| 20260501173432 | 65 | 91 | 2.0 | 8.0 | 0.00 | 0.00 | 0.00 | 37 | 1021.6 |
| 20260501173332 | 65 | 89 | 2.0 | 8.0 | 0.00 | 0.00 | 0.00 | 37 | 1021.6 |
| 20260501173321 | 65 | 140 | 2.0 | 8.0 | 0.00 | 0.00 | 0.00 | 37 | 1021.6 |
| 20260501173231 | 65 | 97 | 3.0 | 8.0 | 0.00 | 0.00 | 0.00 | 37 | 1021.6 |
| 20260501173131 | 65 | 90 | 3.0 | 10.0 | 0.00 | 0.00 | 0.00 | 37 | 1021.6 |
| 20260501173031 | 65 | 76 | 3.0 | 10.0 | 0.00 | 0.00 | 0.00 | 37 | 1021.6 |
| 20260501172929 | 65 | 89 | 3.0 | 10.0 | 0.00 | 0.00 | 0.00 | 37 | 1021.6 |
| 20260501172829 | 65 | 82 | 4.0 | 10.0 | 0.00 | 0.00 | 0.00 | 37 | 1021.6 |
| 20260501172816 | 65 | 109 | 4.0 | 10.0 | 0.00 | 0.00 | 0.00 | 37 | 1021.6 |
| 20260501172729 | 65 | 81 | 4.0 | 10.0 | 0.00 | 0.00 | 0.00 | 37 | 1021.5 |
| 20260501172629 | 65 | 73 | 4.0 | 10.0 | 0.00 | 0.00 | 0.00 | 37 | 1021.6 |
| 20260501172531 | 65 | 99 | 4.0 | 10.0 | 0.00 | 0.00 | 0.00 | 36 | 1021.6 |
| 20260501172428 | 65 | 94 | 4.0 | 10.0 | 0.00 | 0.00 | 0.00 | 36 | 1021.5 |
| 20260501172328 | 65 | 70 | 4.0 | 10.0 | 0.00 | 0.00 | 0.00 | 37 | 1021.6 |
| 20260501172312 | 65 | 97 | 4.0 | 10.0 | 0.00 | 0.00 | 0.00 | 37 | 1021.6 |
| 20260501172228 | 65 | 67 | 4.0 | 10.0 | 0.00 | 0.00 | 0.00 | 36 | 1021.5 |
| 20260501172128 | 65 | 79 | 4.0 | 10.0 | 0.00 | 0.00 | 0.00 | 36 | 1021.5 |
| 20260501172021 | 65 | 67 | 4.0 | 10.0 | 0.00 | 0.00 | 0.00 | 36 | 1021.3 |
| 20260501171921 | 65 | 102 | 3.0 | 10.0 | 0.00 | 0.00 | 0.00 | 36 | 1021.3 |
| 20260501171822 | 65 | 117 | 3.0 | 10.0 | 0.00 | 0.00 | 0.00 | 35 | 1021.3 |
| 20260501171812 | 65 | 82 | 3.0 | 10.0 | 0.00 | 0.00 | 0.00 | 35 | 1021.3 |
| 20260501171722 | 65 | 124 | 3.0 | 10.0 | 0.00 | 0.00 | 0.00 | 35 | 1021.5 |
| 20260501171622 | 65 | 80 | 3.0 | 8.0 | 0.00 | 0.00 | 0.00 | 35 | 1021.3 |
| 20260501171516 | 65 | 115 | 3.0 | 8.0 | 0.00 | 0.00 | 0.00 | 36 | 1021.3 |
| 20260501171416 | 66 | 118 | 2.0 | 7.0 | 0.00 | 0.00 | 0.00 | 35 | 1021.3 |
| 20260501171316 | 66 | 118 | 3.0 | 7.0 | 0.00 | 0.00 | 0.00 | 35 | 1021.3 |
| 20260501171312 | 66 | 131 | 3.0 | 7.0 | 0.00 | 0.00 | 0.00 | 35 | 1021.3 |
| 20260501171216 | 66 | 71 | 2.0 | 7.0 | 0.00 | 0.00 | 0.00 | 35 | 1021.3 |